Regional Weather Roundup
Issued by NWS

Home | Current Version | Previous Version | Graphics & Text | Print | Product List | Glossary On
Versions: 1 2 3 4 5 6 7 8 9 10 11 12 13 14 15 16 17 18 19 20 21 22 23 24 25 26 27 28 29 30 31 32 33 34 35 36 37 38 39 40 41 42 43 44 45 46 47 48 49 50
000
ASUS45 KABQ 260901
RWRNM
WEATHER ROUNDUP FOR NEW MEXICO
NATIONAL WEATHER SERVICE ALBUQUERQUE NM
200 AM MST FRI DEC 26 2014

NOTE: "FAIR" MEANS FEW OR NO CLOUDS BELOW 12,000 FEET AGL WITH NO
       SIGNIFICANT WEATHER OR OBSTRUCTIONS TO VISION.

      THIS PRODUCT IS RELEASED AS TWO VERSIONS.  ONE VERSION NEAR
      THE TOP OF THE HOUR CONTAINING PRELIMINARY DATA FROM ALBUQUERQUE
      AND OTHER STATIONS.  A FINAL VERSION WITH ADDITIONAL DATA IS
      ISSUED ABOUT 10 MINUTES AFTER THE HOUR.

NMZ501-503-504-510>518-261000-
NORTHWEST PLATEAU/NORTHCENTRAL MOUNTAINS

CITY           SKY/WX    TMP DP  RH WIND       PRES   REMARKS
FARMINGTON     CLOUDY    26  18  71 N7        29.69R WCI  18
SANTA FE       FLURRIES  29  27  92 SE6       29.71R WCI  23
TAOS           CLOUDY    27  21  80 CALM      29.68S
ANGEL FIRE     CLOUDY    25  17  71 S6        29.68F WCI  18

$$
NMZ402-403-502-505>509-261000-
WESTCENTRAL MOUNTAINS/SOUTHWEST MOUNTAINS

CITY           SKY/WX    TMP DP  RH WIND       PRES   REMARKS
GALLUP         CLOUDY    24  20  84 S9        29.70S WCI  14
GRANTS         PTCLDY    10   7  90 CALM      29.73R
SILVER CITY    MOCLDY    32  30  93 NW12      29.78S WCI  23

$$
NMZ407-409-411-412-261000-
SOUTHERN DESERTS

CITY           SKY/WX    TMP DP  RH WIND       PRES   REMARKS
LORDSBURG      PTSUNNY   32  32 100 CALM      29.79F
DEMING         RAIN      37  35  92 W7        29.79R WCI  32
HOLLOMAN AFB   MOCLDY    47  23  38 W8        29.74R
ALAMOGORDO     MOCLDY    50  23  34 S14       29.75R
T OR C         CLOUDY    41  30  65 SW5       29.73R

$$
NMZ519>523-261000-
CENTRAL VALLEYS/CENTRAL HIGHLANDS

CITY           SKY/WX    TMP DP  RH WIND       PRES   REMARKS
ALBUQUERQUE    LGT SNOW  32  31  96 SE13      29.73S FOG     WCI  22
DOUBLE EAGLE   CLOUDY    30  29  96 SE9       29.72F FOG     WCI  22
MORIARTY ARPT  LGT SNOW  30  28  94 CALM      29.74R
CLINES CORNERS SNOW      27  24  89 NW15      29.69R VSB 1/2 WCI  15
BELEN          CLOUDY    32  31  96 SW7       29.75R WCI  26
SOCORRO        CLOUDY    35  34  94 CALM      29.76R

$$
NMZ524>526-539-540-261000-
SOUTHCENTRAL MOUNTAINS

CITY           SKY/WX    TMP DP  RH WIND       PRES   REMARKS
RUIDOSO        NOT AVBL

$$
NMZ527>531-261000-
NORTHEAST HIGHLANDS/NORTHEAST PLAINS

CITY           SKY/WX    TMP DP  RH WIND       PRES   REMARKS
LAS VEGAS      PTCLDY    25  19  78 S10       29.68S WCI  15
RATON          CLOUDY    29  23  78 N14       29.68R WCI  18
CLAYTON        CLOUDY    28  24  85 N23       29.75R WCI  14

$$
NMZ532>537-261000-
EASTCENTRAL PLAINS

CITY           SKY/WX    TMP DP  RH WIND       PRES   REMARKS
TUCUMCARI      CLEAR     39  18  42 W8        29.69R WCI  33
CANNON AFB     CLEAR     32  21  64 S3        29.72R
CLOVIS AIRPORT CLEAR     25  18  74 SW3       29.72R

$$
NMZ028-029-538-261000-
SOUTHEAST PLAINS

CITY           SKY/WX    TMP DP  RH WIND       PRES   REMARKS
ROSWELL        CLEAR     35  20  54 CALM      29.70R
ARTESIA        CLEAR     36  25  64 SE13      29.72S WCI  27
CARLSBAD       CLEAR     32  25  75 CALM      29.73R
HOBBS          CLEAR     39  27  60 S10       29.77S WCI  32


$$


USA.gov is the U.S. government's official web portal to all federal, state and local government web resources and services.